Regional Weather Roundup
Issued by NWS Northern Indiana

Home | Current Version | Previous Version | Text Only | Print | Product List | Glossary On
Versions: 1 2 3 4 5 6 7 8 9 10 11 12 13 14 15 16 17 18 19 20 21 22 23 24 25 26 27 28 29 30 31 32 33 34 35 36 37 38 39 40 41 42 43 44 45 46 47 48 49 50
000
ASUS43 KIWX 231310
RWRIWX

KIWX WEATHER ROUNDUP
NATIONAL WEATHER SERVICE NORTHERN INDIANA
900 AM EDT THU OCT 23 2014

NOTE: "FAIR" INDICATES FEW OR NO CLOUDS BELOW 12,000 FEET WITH NO
SIGNIFICANT WEATHER AND/OR OBSTRUCTIONS TO VISIBILITY.

* THESE STATIONS ARE NOT UNDER NWS QUALITY CONTROL. THEY ALSO MAY NOT
  REPORT WEATHER SUCH AS PRECIPITATION OR FOG.

INZ001>027-231400-
NORTHERN INDIANA

CITY           SKY/WX    TMP DP  RH WIND       PRES   REMARKS
GARY*          MOCLDY    39  37  93 S7        30.24R FOG
VALPARAISO     FOG       31  31 100 CALM      30.24S VSB<1/4
MICHIGAN CITY* CLEAR     39  37  93 S5        30.24S FOG
LAPORTE*       FOG       33  33 100 CALM      30.24S VSB<1/4
KNOX*            N/A     34  33  95 CALM      30.23S VSB 1
SOUTH BEND     FOG       34  33  96 CALM      30.25S VSB<1/4
ELKHART*       FOG       32  32 100 CALM      30.25S VSB 1/4
GOSHEN         FOG       31  30  96 CALM      30.25S VSB<1/4
MONTICELLO*    CLEAR     38  37  99 NE3       30.24S FOG
LOGANSPORT*    FOG       32  30  93 E3        30.26S VSB<1/4
ROCHESTER*     FOG       34  34 100 CALM      30.25S VSB<1/4
WARSAW*        FOG       30  30 100 CALM      30.25S VSB<1/4
ANGOLA*        CLOUDY    30  16  55 CALM      30.25R VSB 0
FORT WAYNE     FOG       31  31 100 CALM      30.26S VSB 1/4
HUNTINGTON*    FOG       32  32 100 CALM      30.26R VSB<1/4
PERU/GRISSOM   FOG       35  35 100 SE5       30.24S VSB 1/8 WCI  31
MARION*        FOG       30  30 100 CALM      30.26S VSB<1/4

$$
INZ028>050-231400-
CENTRAL INDIANA

CITY           SKY/WX    TMP DP  RH WIND       PRES   REMARKS
LAFAYETTE      CLEAR     37  36  96 CALM      30.25S FOG
KOKOMO*        CLOUDY    34  30  86 CALM      30.26S VSB<1/4
MUNCIE*        CLEAR     34  33  96 CALM      30.25S FOG
INDIANAPOLIS   PTCLDY    38  37  97 CALM      30.25R FOG

$$
MIZ043>046-050>051-056>058-064>065-071>073-077>080-231400-
SOUTHWEST LOWER MICHIGAN

CITY           SKY/WX    TMP DP  RH WIND       PRES   REMARKS
BATTLE CREEK   FOG       32  30  92 CALM      30.25S VSB 1/4
BENTON HARBOR  PTCLDY    35  35 100 S5        30.24S FOG     WCI  31
COLDWATER*     FOG       31  30  98 CALM      30.25R VSB 1/2
HILLSDALE*     FOG       31  31 100 CALM      30.23F VSB<1/4
HOLLAND        FOG       34  32  92 CALM      30.25S VSB<1/4
GRAND RAPIDS   FOG       31  29  92 E3        30.25S VSB 1/2
KALAMAZOO      FOG       34  34 100 VRB3      30.25S VSB<1/4
STURGIS*       FOG       30  30 100 CALM      30.24S VSB<1/4
THREE RIVERS*  FOG       32  32 100 CALM      30.26R VSB<1/4

$$
OHZ001>008-015>018-024>025-231400-
NORTHWEST OHIO

CITY           SKY/WX    TMP DP  RH WIND       PRES   REMARKS
WAUSEON*       FAIR      32  32 100 CALM      30.25S FOG
DEFIANCE       FOG       31  30  96 CALM      30.27R VSB 1
FINDLAY        FOG       35  33  92 W5        30.24S VSB 1/4 WCI  31
TOLEDO EXPRESS PTSUNNY   35  34  96 CALM      30.25R FOG
TOLEDO METCALF SUNNY     37  35  92 W5        30.25S FOG
LIMA           FOG       34  33  96 CALM      30.25R VSB<1/4

$$
AND FOR LAKE MICHIGAN COASTAL AND OPEN LAKE BUOY OBSERVATIONS

STATION/POSITION TEMP    WIND        PRES    VSBY  WAVE
                 AIR SEA DIR/SP/G                  HT/PER
                 (F)     (DEG/KT/KT) (MB)    (MI)  (FT/S)
CALUMET HARBOR    42     180/  5/  8 1022.2S
MICHIGAN CITY     40     140/ 11/ 13   N/A
SAINT JOSEPH      39                 1024.0R
SOUTH LAKE BUOY   51 54  190/ 14/ 16 1023.3F         2/ 4
SAINT JOSEPH CG                      1024.6      6   1

$$
&&



USA.gov is the U.S. government's official web portal to all federal, state and local government web resources and services.